Theta_e
325 323 324 325 323 320 318 314 301 300 301 294 293 295 295 300 297 298 297 301 299 302 305 304 303 306 305 302 303 304 308 300 300 293 293 303 327 335 333 334 337 339 340 342 344 346 346 348 349 348 349 348 347 346 344 342 341 339 339 339 338 338 338 337 336 336 336 337 337 338 340 340 341 340 339 339 339 340 340 340 339 338 338 338 338 335 334 334 334 334 335 337 339 340 340 339 339
324 323 324 323 318 315 310 308 298 296 295 292 295 296 296 298 299 297 297 297 298 304 302 304 304 304 306 308 310 308 306 312 310 303 316 324 329 331 334 336 338 338 340 342 344 345 345 346 348 348 348 348 347 346 344 343 342 340 339 338 338 337 337 337 337 337 337 337 336 336 338 338 340 340 339 339 338 338 340 339 339 338 338 336 335 335 334 334 333 333 335 336 336 336 337 338 337
323 321 322 319 310 311 311 309 300 292 293 290 294 295 298 299 298 298 298 300 303 304 302 303 304 304 303 305 305 304 297 316 317 317 320 326 327 326 334 337 339 340 341 343 344 344 344 345 347 348 347 348 348 346 345 344 343 342 340 339 339 338 336 336 337 337 337 337 337 335 335 336 335 336 337 337 337 340 339 339 338 336 336 336 337 337 336 333 333 334 333 333 334 334 335 336 335
318 319 318 312 306 310 305 303 296 296 294 293 293 297 297 300 300 302 303 302 303 303 304 305 302 305 303 303 306 312 311 313 317 320 321 324 326 331 334 337 340 341 342 343 343 343 344 346 346 347 347 347 347 346 345 344 343 342 341 340 339 338 336 336 337 336 336 336 336 334 334 334 335 334 336 335 336 340 339 338 336 335 335 337 340 339 336 334 332 332 334 333 333 334 333 335 335
318 320 318 311 307 306 304 300 298 296 296 293 295 296 299 301 303 303 304 303 303 303 303 303 303 307 306 307 309 305 306 314 320 321 322 326 328 333 335 338 339 340 341 341 342 342 343 345 345 346 347 348 347 346 345 344 343 342 341 340 339 338 337 338 339 337 336 336 334 334 334 334 335 335 335 335 336 338 339 337 336 335 334 337 341 340 339 337 334 332 331 333 333 333 332 332 334
318 317 317 314 306 310 303 297 295 294 300 298 297 298 299 303 304 303 304 303 304 303 303 305 303 304 306 309 311 305 313 309 319 321 325 325 329 333 336 337 338 339 340 341 341 341 342 344 344 346 347 347 347 346 345 344 344 342 341 340 340 338 337 337 337 337 336 336 336 334 334 335 336 334 332 333 335 336 337 336 335 335 333 333 339 340 339 337 336 334 332 332 331 332 332 331 332
314 312 307 305 304 308 296 293 293 293 300 302 300 299 302 303 304 302 302 304 305 305 305 306 305 304 304 309 312 316 318 319 322 321 328 328 330 334 336 336 337 337 338 340 340 341 341 343 344 346 347 346 347 346 345 345 343 343 341 340 339 339 337 337 336 335 335 335 337 336 336 336 334 332 332 333 336 335 335 335 335 333 334 334 335 339 339 337 336 335 333 332 331 332 331 331 331
320 309 306 300 296 298 295 295 297 296 298 303 302 301 302 304 303 302 303 302 301 303 305 305 304 301 302 310 306 312 321 325 321 326 329 329 331 333 335 335 334 335 336 338 339 340 344 342 344 345 346 346 346 346 346 345 343 342 342 341 339 339 338 338 336 336 336 335 336 337 337 337 334 332 333 333 335 335 335 335 335 334 334 332 337 339 339 338 336 335 334 332 331 331 331 331 331
311 311 306 299 296 296 294 293 294 298 299 302 302 304 309 305 304 304 302 303 304 304 303 305 303 303 302 310 309 313 321 326 326 330 330 329 330 332 332 333 333 333 335 336 337 339 341 342 343 344 345 346 346 345 345 344 343 343 342 341 339 340 339 337 337 336 335 335 335 335 337 336 334 332 331 333 333 334 333 334 335 335 332 332 333 336 339 338 337 336 335 333 332 331 330 330 331
308 306 296 297 295 294 291 292 292 296 298 300 301 304 305 304 303 304 303 302 304 303 304 305 304 303 305 307 310 316 319 327 327 328 330 330 330 329 329 330 332 332 333 335 336 338 340 344 341 342 343 343 345 345 345 344 343 342 342 340 340 341 339 338 337 336 335 335 335 335 336 335 334 332 331 332 333 334 333 335 333 333 333 333 332 333 335 336 336 335 334 334 334 332 331 330 330
302 303 302 298 292 289 291 291 292 297 297 298 300 303 305 304 304 303 303 303 304 303 303 305 305 304 308 309 309 315 323 326 327 326 329 330 330 328 326 328 331 333 333 333 335 337 338 341 343 340 341 341 343 344 344 344 344 342 342 341 340 340 340 337 336 337 335 335 336 335 335 335 334 332 333 335 335 335 333 334 333 334 334 334 333 333 333 333 333 333 334 334 334 334 332 331 330
299 298 299 292 291 291 290 290 293 296 297 298 299 305 304 304 304 303 303 302 303 304 303 305 304 309 309 311 310 320 324 324 326 329 330 330 330 328 326 327 330 332 332 333 335 335 336 338 340 342 338 339 339 341 342 343 344 343 342 341 341 341 340 337 336 337 336 335 336 335 335 335 334 333 337 337 335 335 334 334 333 333 333 334 334 333 332 331 332 332 334 334 334 334 334 333 333
301 296 293 291 288 291 290 291 293 295 296 296 299 304 304 304 303 304 304 304 303 303 303 307 307 311 304 310 313 320 322 324 326 329 330 330 330 329 330 330 331 331 331 332 334 334 334 335 337 339 337 336 337 339 340 341 343 343 342 342 342 341 341 339 337 338 338 337 337 338 338 336 335 336 336 335 334 335 336 336 335 332 332 333 334 333 333 332 332 333 334 333 332 333 334 334 334
303 299 294 292 291 291 291 291 291 294 294 298 299 304 305 304 305 305 305 302 302 304 307 309 309 314 311 311 312 317 322 325 326 329 330 329 329 330 332 332 331 331 331 331 332 333 333 334 335 336 336 335 335 337 338 339 340 342 341 340 341 341 341 339 338 338 339 339 338 337 337 337 335 336 336 334 334 334 335 333 335 334 332 332 332 333 333 333 333 333 333 333 333 333 333 334 334
303 301 297 291 291 291 290 291 293 292 295 298 300 304 305 306 305 304 305 303 304 308 307 311 310 310 304 310 307 317 322 326 327 329 327 327 328 331 332 332 331 330 330 330 331 332 332 333 333 333 333 333 333 335 337 338 337 339 339 339 339 339 339 338 337 336 338 337 337 336 336 336 336 336 336 334 334 334 334 333 332 333 331 333 333 333 333 333 333 332 333 333 334 333 332 333 333
304 300 295 293 290 291 292 291 292 292 295 297 299 303 304 306 305 305 305 307 305 309 309 306 310 307 307 312 312 320 325 327 328 327 326 326 326 329 331 331 331 330 330 329 330 331 332 332 332 332 332 331 331 332 335 337 336 336 337 338 337 336 337 335 334 333 334 334 334 334 334 334 335 334 335 333 332 332 334 329 330 332 334 333 332 332 333 332 333 332 333 333 333 333 333 332 332
304 304 294 291 291 290 292 292 292 291 295 296 299 306 303 304 306 307 309 307 307 305 309 314 309 318 315 315 314 323 326 328 327 326 325 325 325 325 328 329 329 329 330 329 329 330 331 331 330 330 331 330 330 330 332 335 339 335 335 335 335 333 334 333 331 330 329 329 330 330 331 331 330 330 331 328 331 329 327 325 327 331 334 334 333 332 333 333 333 332 333 333 333 333 333 333 333
303 295 292 290 292 292 294 296 295 295 296 297 297 303 303 302 305 309 309 308 306 307 312 316 319 319 320 319 320 326 328 327 326 325 324 323 324 323 325 326 328 328 329 329 329 330 330 330 330 330 330 330 330 330 331 334 338 336 338 336 336 333 332 331 331 330 334 329 327 329 329 329 328 328 328 331 326 327 326 325 326 329 332 333 334 334 333 332 333 332 333 332 332 333 333 326 327
298 292 292 293 293 296 297 297 297 296 295 295 297 298 303 305 305 306 306 304 304 305 309 315 315 317 319 320 323 326 326 326 325 325 323 323 323 323 324 325 326 327 328 329 329 330 330 330 330 329 329 329 329 329 330 331 335 337 337 336 337 333 334 333 330 330 330 328 327 328 327 327 327 327 328 328 326 324 325 324 326 328 330 331 333 334 333 333 333 333 332 332 333 332 327 320 321
297 295 292 294 295 297 299 299 299 297 298 298 298 299 301 303 305 307 305 304 303 305 308 311 313 314 316 320 323 324 325 325 325 324 323 323 324 323 323 324 325 327 328 329 329 331 331 330 330 330 329 329 329 328 328 330 333 335 337 336 336 336 335 333 331 329 329 329 327 327 327 326 326 326 330 332 332 326 324 323 324 326 327 328 330 332 332 331 332 332 332 332 332 327 322 321 320
296 296 293 294 297 296 299 300 300 300 298 298 298 299 298 300 304 306 303 302 302 304 311 312 313 315 317 320 322 323 324 323 323 324 323 323 324 325 325 325 326 327 329 329 329 330 331 331 331 331 331 330 329 328 327 328 330 333 336 336 336 336 336 335 332 330 329 328 328 327 326 326 326 325 325 326 327 325 323 322 323 324 324 324 326 325 325 326 329 323 325 326 322 322 318 319 319
298 295 298 296 295 296 300 301 300 299 299 299 298 298 299 301 301 304 303 303 302 304 308 312 316 318 319 319 321 323 322 322 323 323 323 323 323 324 325 325 325 323 325 327 328 330 331 331 332 331 331 330 330 329 327 327 329 331 333 335 335 335 335 336 335 332 330 329 328 328 326 326 325 325 324 324 326 325 323 322 322 322 321 322 324 323 322 322 323 322 322 321 320 319 319 319 318
292 294 296 297 299 299 297 299 300 300 299 298 297 299 300 301 298 298 303 304 303 305 307 310 318 320 322 323 322 321 321 322 322 322 323 323 324 324 325 326 325 324 324 327 328 329 330 331 332 333 331 331 330 330 328 326 327 329 331 333 333 333 334 335 335 335 334 331 329 328 327 326 326 325 324 324 325 325 324 323 322 321 321 322 323 323 320 320 321 321 320 320 319 318 318 318 318
293 291 293 296 297 297 299 301 300 298 299 298 298 300 299 299 299 299 301 303 305 307 308 309 320 321 322 321 321 321 321 322 322 324 325 325 325 325 326 325 326 326 324 326 327 328 327 329 332 333 332 331 330 330 329 327 327 327 328 329 332 331 332 333 335 336 336 334 331 330 328 328 327 326 324 324 324 324 324 323 322 321 321 321 324 322 321 320 319 319 319 317 319 319 319 319 318
291 289 292 294 297 298 298 297 297 298 299 300 300 299 300 299 299 299 301 303 304 306 308 309 319 321 320 321 321 321 321 322 323 324 325 325 326 326 326 326 326 325 324 325 326 327 327 327 329 331 332 331 331 330 329 328 328 327 327 328 330 328 330 331 332 334 335 335 334 332 329 328 328 327 325 324 324 324 324 323 322 322 321 321 322 321 321 320 319 319 319 319 319 319 319 319 318
292 290 293 293 295 297 298 298 298 297 297 299 299 298 299 299 300 299 301 303 304 304 308 311 316 320 319 320 320 321 321 321 323 323 324 325 325 325 324 325 325 324 325 326 326 326 327 327 327 329 331 331 331 330 329 328 328 327 326 326 328 327 329 329 329 330 332 334 334 333 331 330 329 328 326 324 324 323 324 323 323 322 322 322 321 320 320 320 319 318 318 318 318 318 318 319 318
297 297 295 295 296 296 297 296 296 297 298 299 299 298 299 300 299 296 298 303 305 304 304 307 313 319 320 320 320 321 321 321 322 324 324 323 324 324 324 324 324 325 325 325 326 326 327 327 327 327 329 329 331 329 328 328 328 328 327 326 327 327 328 328 328 328 329 331 332 332 332 330 330 328 327 325 324 324 323 323 322 322 322 322 321 322 321 320 319 319 319 318 317 317 318 318 317
299 298 297 296 294 295 296 296 295 296 297 297 298 298 299 301 297 299 299 301 300 302 302 303 309 315 319 320 320 320 321 322 322 321 322 322 322 323 323 323 324 324 324 325 326 327 326 326 327 327 327 328 329 329 328 327 327 328 327 326 326 326 327 327 328 328 327 329 329 331 332 332 329 329 327 326 325 324 324 323 322 322 322 322 321 322 321 320 320 319 318 318 317 316 316 315 315
298 298 294 294 295 294 294 294 295 297 295 299 300 297 296 298 297 299 303 302 303 301 301 300 304 310 314 317 319 319 320 321 321 321 322 324 324 325 323 325 325 324 326 326 327 326 326 326 327 327 328 326 328 329 329 328 327 327 326 326 326 326 325 326 327 327 328 328 328 329 331 331 330 330 328 327 324 325 324 323 322 322 322 322 321 322 321 320 319 317 316 316 316 315 314 314 313
298 296 293 293 291 290 293 294 295 294 295 299 299 289 293 296 299 300 302 302 302 301 301 301 301 305 310 314 316 318 319 319 320 321 322 323 324 324 323 324 325 325 325 326 326 326 327 327 328 328 328 327 326 329 329 328 327 327 326 325 324 325 325 325 326 327 327 327 328 328 329 331 330 331 330 327 326 324 324 324 323 322 322 322 321 321 321 320 319 318 317 315 316 315 315 314 313
292 294 293 287 285 283 291 293 293 293 296 297 298 289 292 292 295 298 301 301 301 301 301 301 302 302 305 309 315 316 317 319 321 322 323 324 324 324 324 324 324 325 324 325 325 326 327 327 328 328 327 327 326 327 327 328 328 327 326 325 325 325 325 325 325 325 326 327 327 327 328 329 330 330 330 329 325 324 324 323 323 323 322 321 321 321 321 320 319 319 318 317 316 315 315 315 314
292 289 285 286 286 285 291 293 292 290 292 298 297 289 291 291 294 295 297 300 301 301 302 302 302 303 303 305 310 314 316 318 320 322 323 324 325 325 324 323 324 325 325 326 326 327 326 327 327 327 327 327 327 327 328 328 328 327 327 325 326 325 325 325 325 325 325 326 326 326 326 328 328 330 329 329 326 324 324 323 323 322 321 321 320 320 320 320 319 318 318 318 316 315 314 314 313
288 289 284 282 284 287 289 293 293 293 292 294 295 287 288 292 298 302 302 299 300 300 301 301 301 302 303 303 306 311 314 315 317 320 322 323 325 325 325 325 324 325 326 327 326 326 326 327 326 327 326 327 328 327 327 327 328 327 327 326 326 325 326 326 325 325 325 325 325 325 326 326 327 328 329 328 327 325 324 323 322 321 321 321 320 319 319 319 319 318 317 317 317 317 314 314 313
283 286 285 285 285 285 285 290 291 294 292 289 294 291 290 290 290 293 296 297 298 299 300 300 301 301 303 303 303 306 310 312 314 317 321 323 324 325 326 325 325 325 327 327 328 327 327 327 327 327 327 327 328 328 327 327 328 328 327 326 325 326 326 326 326 326 325 326 326 325 325 325 325 327 328 328 328 327 325 324 322 321 320 320 320 319 319 319 318 318 318 316 317 316 314 313 313
280 281 281 284 286 287 286 286 288 292 292 291 290 291 291 292 295 295 295 295 296 298 299 300 301 301 301 301 302 303 307 309 312 316 320 323 323 324 325 325 325 325 327 328 328 328 328 327 327 326 326 327 327 328 327 327 327 327 326 326 325 326 326 326 326 326 326 326 326 326 325 325 324 325 326 327 327 326 325 324 323 321 321 320 319 319 318 317 317 317 317 316 315 316 316 315 315
283 283 283 284 284 285 287 291 294 294 290 288 289 288 291 293 294 296 298 297 295 296 297 298 299 300 301 301 301 303 304 307 310 313 317 322 323 324 324 325 326 326 327 328 327 328 328 328 327 327 326 327 327 327 327 326 326 325 325 325 324 324 326 325 326 326 326 326 326 326 325 326 325 325 326 326 326 326 325 324 323 321 321 320 319 318 318 317 316 315 315 315 314 314 314 315 314
290 288 286 283 283 285 287 289 292 294 291 290 290 290 290 292 294 296 297 298 296 295 295 296 297 299 300 300 301 302 303 306 309 310 313 319 322 324 325 325 325 326 326 327 327 327 328 328 326 326 327 327 326 326 325 325 324 324 325 325 324 326 325 326 326 326 326 327 326 326 326 325 325 325 325 325 325 324 325 324 323 321 321 320 320 320 319 318 317 317 316 315 315 314 314 314 314
289 287 286 286 285 284 288 289 290 293 291 290 290 289 290 291 293 296 297 296 296 297 296 296 297 298 299 299 300 300 302 302 303 303 306 310 318 322 324 324 322 323 325 326 326 327 328 328 327 327 327 327 327 327 326 326 326 326 325 325 326 326 326 324 325 326 326 327 326 326 326 326 325 325 324 326 325 325 324 324 323 322 321 321 321 320 319 317 317 317 316 314 314 315 315 315 316
288 287 286 285 286 287 289 290 291 292 291 289 291 289 290 291 293 294 295 296 298 299 299 299 299 298 298 298 299 300 299 300 301 302 302 306 312 317 321 322 323 325 326 326 326 327 328 328 328 328 328 327 327 327 327 326 327 327 327 326 327 326 328 328 327 327 326 326 326 326 326 326 325 325 325 324 325 325 325 324 323 323 322 321 319 319 319 318 318 317 316 317 313 313 315 315 316
287 286 284 283 286 284 280 284 286 290 291 287 287 287 289 289 289 291 293 295 295 297 298 298 298 299 299 299 299 299 299 300 300 301 303 304 307 313 315 319 321 323 324 325 326 326 327 327 328 328 328 328 328 328 326 328 327 328 328 328 325 327 324 326 325 322 324 324 324 325 326 326 326 326 325 324 325 325 325 324 324 322 322 321 321 320 318 319 318 317 317 317 317 315 314 315 318
287 286 285 284 285 285 285 284 288 290 290 289 288 287 288 289 289 290 291 292 292 294 295 295 296 297 299 300 300 300 300 300 300 300 301 301 302 306 312 316 319 320 322 323 325 325 327 327 328 328 328 328 328 327 327 327 327 324 325 321 321 321 319 320 321 323 323 324 325 324 325 326 326 326 325 325 324 325 325 325 324 323 322 321 321 320 319 319 319 319 318 318 318 317 315 314 317
287 287 287 287 287 285 286 286 287 284 284 286 286 278 280 286 289 290 292 291 292 293 292 293 294 296 297 297 299 300 300 300 301 301 302 303 303 304 306 311 315 317 319 322 324 326 326 327 328 328 328 328 328 328 327 327 326 325 324 323 322 321 322 321 321 323 323 323 324 326 326 326 326 326 326 325 324 324 324 324 324 323 322 322 321 321 321 319 319 319 319 319 318 319 318 315 317
285 285 289 288 287 287 286 285 286 281 280 283 286 280 277 283 283 287 289 289 291 292 291 294 295 296 295 296 298 300 301 301 300 300 301 301 302 303 303 306 312 315 318 320 321 323 325 326 327 328 328 328 328 328 327 326 326 326 325 324 324 323 323 324 325 326 326 325 326 326 326 326 326 325 325 325 325 324 324 324 323 323 323 322 321 321 321 320 320 320 320 320 320 320 320 318 318
284 291 288 288 287 286 286 287 287 283 283 284 285 284 278 279 283 285 286 286 287 287 289 290 292 293 294 295 296 298 301 302 302 302 302 302 301 302 304 304 308 313 316 316 317 319 321 323 325 326 327 327 328 328 327 327 326 326 325 324 324 324 323 323 324 325 326 325 325 325 325 325 325 325 325 325 324 324 323 324 324 323 323 323 321 322 322 322 322 322 321 322 322 322 322 320 319
287 291 290 288 287 286 286 286 285 285 284 281 284 284 280 278 282 287 284 283 282 285 286 288 290 291 292 294 295 296 299 302 303 303 303 303 302 301 302 303 305 309 312 314 314 316 318 321 322 323 324 324 325 326 326 326 326 326 326 325 324 324 324 324 324 323 323 322 323 324 324 324 324 325 325 325 324 324 322 323 324 323 323 323 321 323 323 324 323 323 322 322 322 322 322 322 321
288 290 290 289 288 287 286 285 284 283 281 278 282 283 278 279 280 281 282 284 285 287 289 288 288 289 290 292 294 296 297 299 301 302 304 304 304 303 303 303 302 304 308 310 312 313 314 314 315 315 318 321 322 324 325 325 325 324 325 325 324 324 323 323 321 320 320 320 322 322 323 323 323 323 324 325 324 324 323 323 324 324 323 324 321 323 324 324 324 324 324 323 323 322 323 322 321
290 289 288 287 286 284 284 283 283 281 278 280 284 284 282 276 282 280 282 282 285 288 286 286 288 288 289 290 291 294 295 296 299 301 303 304 305 304 301 300 302 302 303 306 307 308 309 310 311 311 313 315 317 320 322 323 324 324 324 324 324 324 323 323 320 318 319 319 321 321 322 322 323 323 324 324 324 324 324 323 323 324 324 323 322 324 324 324 324 324 325 324 323 323 323 322 321
288 284 284 284 283 284 284 282 282 278 276 284 286 283 283 275 280 281 286 284 283 286 286 287 288 289 290 290 291 292 294 296 297 299 301 302 302 301 298 299 300 301 300 301 304 306 307 308 309 309 309 308 310 314 318 321 322 322 323 323 323 323 323 322 321 320 319 320 320 321 322 322 321 322 323 323 323 324 324 324 323 324 323 324 324 325 325 325 325 325 324 324 324 324 323 322 322
287 285 284 279 275 278 275 280 275 276 276 282 282 283 279 279 285 281 283 283 286 284 286 288 289 290 290 291 291 292 293 294 296 297 299 301 301 301 300 300 301 300 300 300 302 304 306 307 307 308 308 308 308 309 311 315 318 320 321 321 322 322 322 322 322 321 321 320 321 321 321 320 320 320 321 322 323 324 324 324 323 323 324 324 324 324 325 325 325 325 324 324 324 323 323 322 321
284 283 281 277 273 274 272 276 278 279 282 283 280 284 280 284 287 291 289 289 287 290 291 289 289 289 290 291 291 291 292 294 295 297 298 300 301 302 302 302 302 301 301 301 300 302 303 305 305 306 308 308 307 307 309 310 313 317 319 320 321 321 321 321 321 321 321 321 321 321 321 321 321 321 321 322 324 324 323 324 324 324 324 324 324 325 325 325 325 324 324 324 323 324 324 323 322
284 287 285 280 279 275 272 275 272 274 277 278 279 278 273 279 280 286 292 293 295 296 296 296 293 290 290 291 290 290 291 292 294 296 297 299 301 302 302 301 301 301 302 301 300 300 301 302 303 304 305 305 305 307 308 310 312 313 316 318 319 320 320 320 321 321 321 321 321 321 322 322 321 322 322 323 323 323 323 323 323 323 323 324 323 324 324 324 324 324 324 324 324 324 323 323 322
286 288 287 281 278 284 274 275 273 273 273 273 275 277 281 283 287 287 286 286 287 289 291 293 293 294 294 293 293 293 292 293 294 295 296 298 299 300 300 300 301 301 301 300 300 300 301 303 304 304 305 306 306 306 308 310 312 313 315 316 318 318 318 319 319 319 320 321 321 321 321 322 322 322 322 322 322 322 322 322 322 322 323 323 324 324 324 324 324 324 323 323 322 323 322 321 322
284 286 280 283 290 286 280 280 280 275 274 273 280 280 282 286 289 290 291 290 287 288 289 288 290 291 292 293 294 294 293 292 293 295 296 297 298 299 301 301 301 301 301 301 301 301 302 303 304 304 305 305 306 306 307 309 312 313 315 316 317 318 318 318 319 319 319 320 320 321 321 321 322 322 322 321 321 321 322 322 322 321 322 322 323 324 324 324 323 323 322 322 322 322 321 320 320
285 278 283 288 285 285 282 274 278 276 272 274 282 278 279 279 276 284 286 287 289 288 288 288 288 288 288 291 292 293 293 293 294 295 296 297 297 299 300 301 301 302 302 302 302 301 301 302 302 304 304 305 306 306 306 307 310 313 315 315 316 317 318 318 319 319 319 318 318 319 320 319 320 321 322 321 321 321 321 318 321 321 321 321 322 323 323 323 323 323 322 322 322 322 321 320 320
284 283 289 281 276 277 281 277 271 272 272 273 278 279 280 280 281 281 281 282 282 283 285 285 288 290 289 290 291 292 292 291 292 293 297 298 298 300 301 301 302 302 302 302 302 301 301 300 301 303 304 305 306 306 305 305 305 310 314 315 316 316 316 317 317 316 316 316 317 317 318 320 320 319 319 319 320 320 320 320 320 320 320 321 322 323 323 323 323 322 322 321 321 320 319 319 319
281 286 283 286 283 279 277 278 279 276 271 273 272 278 275 282 281 284 283 286 284 285 287 287 288 288 290 291 293 293 293 292 292 293 294 297 299 299 300 301 302 302 303 303 302 302 302 302 302 302 302 302 303 304 304 305 305 305 309 310 313 315 315 315 315 315 315 316 317 317 317 317 319 318 319 320 320 320 319 319 319 319 318 320 321 322 322 322 322 322 321 320 319 318 317 317 315
275 277 275 279 280 284 283 282 277 276 274 273 273 272 275 282 283 284 284 285 286 287 287 288 288 289 289 291 293 293 292 292 292 292 292 293 297 299 299 300 301 301 300 301 302 304 303 302 301 301 303 302 301 302 303 305 303 305 306 309 311 312 313 314 314 315 316 316 317 316 318 319 317 317 318 318 319 319 319 319 318 317 317 318 319 320 321 321 320 320 319 319 317 317 316 315 314
276 277 276 280 278 275 273 272 282 278 276 272 272 271 279 283 287 287 286 286 287 288 287 288 288 290 290 291 292 291 292 293 294 294 292 294 296 298 299 299 299 299 300 301 301 300 299 300 301 301 299 300 301 302 302 304 302 305 305 307 308 309 312 312 313 313 314 316 316 316 317 316 316 317 317 318 318 318 317 317 317 316 316 316 317 318 317 318 317 317 315 315 314 314 314 314 312
Wind_Speed
14 11 9 9 3 2 3 1 1 2 1 4 2 1 4 0 3 2 2 1 2 2 1 2 4 3 1 3 7 4 1 4 4 5 3 1 3 11 9 12 13 12 11 9 8 10 12 15 17 19 18 18 18 17 16 14 14 14 13 13 13 11 12 12 11 12 12 11 10 10 10 11 11 11 9 9 9 9 10 10 10 9 9 10 11 11 11 10 10 9 10 11 11 12 13 11 10
11 10 8 6 2 3 1 3 2 2 2 3 7 2 6 1 2 6 7 5 3 2 2 2 4 8 9 9 6 5 2 1 1 1 1 1 6 6 10 14 15 14 10 9 9 8 9 12 17 18 19 18 18 18 17 16 14 14 13 12 12 11 11 13 13 12 12 11 10 10 11 12 13 12 10 10 9 9 12 11 11 10 10 8 9 10 11 10 9 9 10 9 10 10 11 10 9
11 10 8 5 2 1 1 1 2 0 0 4 6 6 2 3 6 5 7 4 4 3 3 3 5 5 4 3 1 1 2 1 1 0 3 4 12 5 11 14 15 15 13 9 9 9 8 10 15 17 18 19 18 18 17 16 15 14 14 13 13 11 11 11 14 13 12 13 11 9 9 11 7 12 9 9 9 11 12 13 12 11 9 8 9 10 11 11 10 11 10 10 10 10 11 10 8
8 5 4 3 2 3 2 2 1 3 3 5 4 5 2 4 5 5 4 4 5 4 2 1 3 1 6 1 3 4 2 1 2 4 5 9 6 11 12 13 12 12 11 9 9 8 8 12 15 15 17 19 19 18 17 17 16 16 14 14 13 13 13 12 12 12 12 12 11 11 9 9 11 7 11 8 9 12 12 10 10 10 10 9 9 10 13 12 10 10 11 10 10 10 10 10 8
9 7 2 1 1 1 0 2 1 2 5 3 3 5 3 3 5 4 3 4 5 4 2 2 3 1 1 4 2 1 5 1 1 3 2 3 5 11 12 12 11 11 11 10 10 9 8 15 15 15 17 19 19 18 18 17 17 16 15 14 14 13 13 13 13 12 11 12 12 11 12 12 10 10 10 11 8 11 11 11 11 10 9 11 11 11 13 13 12 10 9 9 10 10 10 10 10
6 7 1 1 1 2 3 2 3 3 7 4 2 5 3 5 7 6 4 4 1 1 4 3 3 2 1 0 2 1 5 4 5 2 5 6 13 11 13 12 12 11 10 10 9 9 9 15 15 15 17 19 19 19 18 18 17 17 16 16 15 13 11 12 13 14 13 13 13 13 11 12 11 10 6 9 10 10 10 9 11 10 10 9 11 11 12 13 13 12 10 9 10 10 10 10 8
5 6 2 3 2 2 4 2 6 5 8 7 3 5 7 6 6 5 3 2 1 1 1 3 3 4 3 1 1 0 1 2 5 4 6 10 13 13 13 11 12 11 11 10 9 9 10 15 15 15 17 18 19 19 18 18 18 16 16 16 15 14 13 10 10 10 11 11 13 12 13 11 11 10 11 10 12 10 10 10 11 11 10 9 10 10 10 12 12 12 11 9 8 9 9 8 8
1 1 2 2 2 2 1 3 6 4 6 7 3 5 6 7 5 4 7 4 4 4 2 1 3 4 1 2 3 2 4 1 2 6 10 13 14 13 13 12 12 12 10 10 9 8 13 15 15 16 16 18 19 19 18 18 17 16 16 16 15 14 14 12 11 12 12 13 13 13 14 12 11 9 11 12 12 10 10 10 12 11 10 9 11 11 10 9 12 12 11 10 8 8 8 7 6
4 1 1 2 2 1 1 5 6 3 5 1 5 4 3 7 9 7 6 2 1 0 4 4 4 4 2 2 1 2 3 3 4 10 13 14 16 15 10 12 13 12 11 10 9 9 10 14 15 15 16 16 17 18 18 17 17 16 16 16 16 15 15 13 14 13 12 13 12 13 15 13 11 11 10 13 11 11 11 10 11 12 10 10 10 11 12 9 10 11 11 11 9 8 7 6 5
2 1 2 2 2 4 2 6 1 6 3 3 3 5 7 6 6 5 7 1 5 3 5 4 4 2 2 4 1 2 0 0 7 9 11 13 14 13 12 12 13 14 12 10 9 9 8 15 15 15 15 15 15 16 16 15 16 17 16 16 16 17 15 15 15 14 13 13 14 14 14 13 12 12 9 9 11 12 12 9 11 11 11 10 10 8 9 11 9 9 9 9 10 9 7 6 5
2 3 1 1 2 4 6 7 6 7 5 3 5 6 4 4 5 3 5 4 2 5 2 3 2 4 4 1 3 2 1 4 10 12 12 14 13 12 11 11 11 13 13 12 10 9 9 10 17 14 14 15 15 15 15 15 16 17 16 16 16 17 17 16 15 16 15 14 12 12 13 14 12 11 13 11 10 9 10 11 9 11 12 11 10 9 9 8 8 7 7 8 9 9 7 5 5
1 1 0 4 5 7 6 5 6 8 6 4 3 2 5 6 3 3 3 5 4 2 6 7 4 6 2 1 2 1 1 4 8 10 13 13 12 11 11 9 11 11 11 11 11 9 9 9 10 15 14 14 13 15 15 15 15 15 15 16 15 16 17 16 16 16 15 13 12 11 13 12 11 11 8 9 7 6 9 11 9 7 10 11 10 10 9 8 8 8 7 7 7 8 7 6 4
1 1 2 2 5 3 3 3 6 4 5 4 4 2 5 5 7 10 8 6 6 6 4 9 5 6 2 3 2 0 3 6 4 8 11 12 10 9 9 10 11 11 10 10 11 11 10 9 9 10 11 15 12 13 14 14 14 15 14 15 14 13 14 14 14 14 15 13 12 10 9 13 11 10 10 10 9 5 6 6 9 10 7 9 9 11 10 10 9 9 8 7 7 6 7 5 4
2 4 5 5 1 2 4 4 1 4 6 4 3 2 8 5 7 8 7 5 7 10 6 11 6 6 2 2 1 4 6 6 5 6 6 8 8 9 10 10 10 10 10 10 11 10 9 9 8 8 9 10 8 11 13 14 13 14 13 14 13 14 13 13 12 12 13 12 12 11 10 11 12 10 10 11 10 8 6 4 6 9 10 10 6 8 10 11 10 10 9 8 7 7 7 6 6
3 1 1 1 2 1 3 5 7 6 9 4 3 1 3 5 3 5 10 8 12 2 3 3 4 6 6 8 4 10 10 9 8 6 6 6 8 9 10 10 9 9 9 10 10 10 9 9 9 8 8 8 8 8 8 11 14 14 13 12 13 13 13 12 12 11 11 13 12 11 11 12 11 11 10 10 10 9 7 6 7 7 10 10 10 9 9 10 10 10 9 9 8 8 7 7 6
2 1 1 2 5 6 5 4 2 4 9 5 5 3 5 4 3 6 6 8 3 1 5 5 1 2 4 12 8 14 12 10 8 7 7 8 7 7 9 9 9 8 8 8 9 9 9 9 8 8 8 8 7 7 8 8 12 14 13 12 13 13 13 12 12 11 10 12 12 12 11 9 10 9 12 9 10 10 9 6 8 7 10 11 11 10 12 10 9 8 9 10 9 9 8 7 7
1 1 2 2 8 5 5 4 6 8 6 3 2 2 4 5 3 2 0 3 6 3 2 2 1 3 8 6 2 14 13 11 10 9 8 8 7 7 7 7 7 7 6 8 9 9 9 9 9 7 8 9 8 7 7 8 10 13 12 13 13 13 12 13 11 11 10 10 10 11 12 7 6 6 8 6 10 7 9 9 9 9 8 9 10 10 10 10 10 10 9 10 10 10 8 8 7
1 3 4 6 5 8 5 9 7 2 0 1 2 1 4 6 2 2 2 1 1 3 3 1 4 5 1 2 8 15 15 15 13 14 11 10 8 8 8 7 9 10 9 8 8 9 9 8 9 8 7 9 8 7 6 6 8 12 9 9 8 10 11 11 10 7 8 5 9 9 7 7 6 6 6 7 6 7 9 11 10 10 9 9 9 10 10 10 10 11 11 12 11 10 7 3 4
4 1 3 13 6 6 6 3 6 1 5 2 3 4 3 9 3 2 4 2 5 4 1 2 3 4 5 6 12 16 15 14 14 14 15 15 13 14 11 9 10 9 9 8 8 10 10 9 8 8 8 8 8 7 6 6 8 8 8 8 8 9 9 10 7 8 6 6 6 6 6 6 6 6 6 7 6 9 9 12 12 11 11 10 10 10 9 9 10 10 12 11 10 9 5 3 4
4 4 7 8 4 4 6 3 6 4 3 6 6 6 2 5 2 1 3 7 6 12 6 0 4 1 5 7 11 14 15 16 15 16 15 15 14 14 12 12 11 12 12 12 11 9 9 9 10 8 8 8 8 6 6 6 7 8 8 8 7 7 8 7 8 7 7 7 7 6 6 6 6 6 8 12 10 7 8 12 13 13 12 11 11 8 9 9 10 10 10 9 7 4 4 4 4
3 4 8 4 4 5 4 6 7 8 3 3 4 5 5 4 4 3 2 5 6 7 9 15 11 11 10 11 12 13 15 15 14 13 13 14 13 12 14 15 15 14 12 9 7 10 11 10 10 9 8 8 8 7 6 7 6 6 7 8 7 8 7 7 7 7 7 7 7 6 6 6 6 6 6 6 6 6 6 6 7 7 6 6 10 6 6 6 7 6 6 6 5 5 5 5 4
0 7 3 5 1 3 7 8 7 5 5 2 3 3 6 2 2 3 5 8 9 9 9 8 13 16 16 14 13 13 15 16 16 14 15 16 17 14 10 8 5 4 6 9 11 10 11 10 11 9 9 9 9 8 7 6 8 7 7 8 8 6 7 8 7 6 6 7 6 6 6 6 6 6 5 6 6 6 6 6 6 6 5 6 5 6 5 5 5 5 5 6 5 4 5 4 4
7 5 5 4 5 7 2 3 3 2 5 6 5 5 2 1 3 2 4 7 4 6 5 7 5 16 18 18 16 14 15 16 17 17 17 15 14 13 13 11 11 10 8 10 10 9 10 10 11 10 10 9 10 9 7 7 7 7 6 6 8 7 6 7 7 7 7 7 6 6 7 6 6 6 6 6 6 6 6 6 6 5 6 6 5 5 6 5 5 5 5 5 5 4 4 4 5
3 5 3 6 4 8 6 10 8 6 3 5 3 4 3 3 7 1 2 5 7 4 4 7 8 6 10 13 16 20 19 19 19 20 19 20 20 19 16 15 11 7 8 10 10 10 10 12 12 11 11 11 10 9 9 8 7 8 8 8 8 7 7 7 7 7 7 8 7 7 6 6 7 6 6 6 6 5 7 6 6 6 6 6 6 6 6 5 5 5 5 4 5 5 5 5 6
4 5 4 6 7 5 6 6 6 4 5 5 4 5 7 5 4 3 3 7 4 4 2 2 10 9 9 12 15 16 17 17 18 17 14 11 13 11 8 8 9 9 11 11 10 11 11 11 12 13 11 12 10 10 9 8 8 8 8 9 9 9 8 8 8 7 7 7 8 8 7 7 6 7 7 6 5 7 6 7 6 7 6 6 6 6 6 6 5 5 5 5 5 6 5 6 6
2 4 3 4 4 5 5 5 5 5 3 3 5 8 8 9 5 6 7 7 5 3 0 2 9 11 13 13 14 14 15 17 17 14 16 14 10 10 11 11 10 11 14 12 11 11 11 11 12 14 14 12 11 10 9 9 9 10 10 10 9 9 9 9 8 8 8 7 8 9 9 8 8 7 7 6 7 7 7 7 7 7 7 7 6 7 6 6 6 5 5 6 6 6 6 7 6
3 6 5 7 8 7 5 4 3 2 2 2 3 6 8 5 5 9 3 9 7 2 4 0 9 12 14 12 13 13 15 16 17 15 10 7 9 13 14 11 11 14 10 12 12 11 11 11 12 12 12 11 10 11 10 10 10 10 10 9 8 10 9 8 8 8 9 9 9 10 9 10 8 8 8 7 7 7 7 7 8 7 7 7 7 7 6 7 6 7 7 7 6 6 7 6 7
8 6 7 8 7 6 6 6 7 3 4 3 5 6 8 8 4 11 3 6 3 6 6 4 5 9 11 13 13 13 13 13 9 6 12 12 12 13 13 13 15 12 12 15 13 11 10 13 13 12 12 11 12 12 10 10 11 11 10 9 10 9 9 9 9 9 9 9 9 10 10 9 9 9 9 8 8 8 8 8 8 8 8 7 7 7 7 7 7 7 7 7 7 7 7 7 6
5 5 7 9 7 7 4 6 3 3 3 2 1 4 10 7 11 4 10 6 6 3 5 4 6 6 9 11 11 9 13 12 10 11 13 14 13 13 17 17 17 15 13 14 12 11 14 13 13 13 12 11 13 13 12 11 10 9 9 10 9 9 9 8 9 9 9 9 9 10 10 10 9 9 9 9 9 8 8 9 8 9 8 8 8 9 9 7 6 6 7 6 6 6 6 6 4
5 3 3 7 9 11 9 3 4 2 3 1 3 11 15 15 14 5 5 5 7 8 8 8 5 6 7 8 10 11 10 9 12 14 12 12 13 12 14 14 13 14 12 9 10 13 12 10 10 10 12 13 13 11 11 10 10 10 9 8 8 9 8 9 9 9 8 8 8 10 10 11 10 10 9 9 8 8 8 9 9 8 8 8 8 8 8 7 7 7 7 6 6 6 7 6 6
3 5 1 4 4 6 1 4 4 5 5 5 4 12 15 4 6 5 6 8 8 10 9 10 10 7 7 7 9 11 12 13 16 16 14 15 13 12 14 12 12 12 8 8 13 17 14 12 10 10 13 13 12 13 12 12 10 10 9 9 9 10 9 9 9 8 9 9 8 9 10 10 11 10 10 9 8 8 8 8 9 8 7 7 7 7 8 7 7 8 7 7 6 6 6 6 6
2 3 7 3 8 3 3 3 3 9 1 8 6 11 16 4 6 7 6 7 11 15 14 13 11 11 9 8 9 11 12 12 15 15 17 17 16 13 14 14 13 12 12 14 15 13 13 12 12 12 12 14 14 15 13 12 11 10 9 9 9 9 8 9 9 9 9 8 9 9 10 10 10 11 10 9 9 8 8 8 8 7 7 7 7 7 7 8 7 7 7 7 7 7 6 6 5
3 8 4 3 3 5 4 4 6 9 5 3 14 9 3 3 10 14 15 8 9 13 14 14 13 14 13 11 10 10 10 9 10 13 15 16 15 15 14 14 13 15 15 14 13 12 13 14 14 14 14 16 16 15 13 11 11 11 10 10 10 9 9 9 8 8 8 9 9 9 10 10 10 11 11 10 9 9 9 8 7 8 7 7 7 7 8 8 7 7 6 7 7 7 7 7 6
7 2 7 2 4 2 3 6 3 7 7 5 8 12 13 2 4 7 6 5 7 10 12 12 11 10 12 9 8 9 10 11 13 13 15 15 14 16 14 14 15 15 14 14 14 16 17 16 15 16 15 15 14 13 13 12 11 10 8 8 8 10 10 9 8 8 9 9 9 10 9 10 10 11 11 11 10 10 9 9 7 8 8 7 7 7 8 7 7 7 8 6 7 6 6 6 6
4 3 4 6 4 6 7 2 3 2 5 12 9 14 17 11 10 7 6 4 7 11 11 11 11 10 10 8 7 8 9 11 13 14 15 15 15 14 14 14 14 14 12 14 13 13 11 11 11 13 13 13 12 12 12 10 8 7 6 6 7 9 8 9 9 9 10 9 10 11 10 9 9 10 10 10 10 10 9 9 9 8 8 8 8 8 7 7 7 7 8 6 5 7 7 7 7
3 7 6 5 8 7 9 8 9 8 5 8 12 13 15 12 12 12 16 6 6 8 7 8 8 10 10 9 8 8 9 12 10 10 12 12 13 13 13 12 12 13 13 13 13 12 12 11 10 11 12 12 11 9 8 8 7 8 9 7 7 8 10 10 10 11 10 10 11 11 10 10 9 9 10 10 10 10 9 9 9 8 9 8 9 9 9 8 9 8 7 6 6 6 6 5 4
9 3 4 7 7 7 3 4 6 7 6 13 14 14 16 12 14 16 15 14 7 6 6 6 6 7 9 10 10 10 10 12 9 9 8 10 13 13 13 12 12 12 13 13 13 13 13 13 12 14 13 12 11 11 10 11 11 10 9 10 12 11 12 11 10 10 10 11 12 11 11 10 10 10 9 10 11 10 10 8 9 8 8 9 9 11 9 9 8 8 8 7 8 7 6 5 4
9 7 7 9 5 9 5 5 4 3 3 7 6 11 16 15 13 13 13 11 13 12 10 10 9 8 8 9 11 11 11 4 5 5 6 6 8 10 11 11 10 13 12 13 14 15 14 13 14 15 11 12 13 13 13 13 13 14 15 16 15 14 12 11 12 11 13 13 12 11 10 10 10 10 10 10 10 10 10 9 9 10 9 9 9 7 7 8 8 7 6 5 5 8 7 7 6
8 8 8 10 12 7 8 8 7 6 3 10 11 9 12 11 10 8 10 13 12 10 10 11 9 9 8 8 8 10 7 9 7 7 5 6 8 9 9 10 12 16 17 17 16 15 14 14 14 13 11 12 12 13 12 13 12 11 11 10 12 11 11 11 11 10 8 8 8 9 10 10 11 11 12 11 11 11 11 10 10 9 9 9 8 9 8 9 9 9 9 8 5 4 5 4 7
8 7 8 12 8 6 7 4 3 2 3 4 2 6 9 5 5 9 9 8 5 7 10 9 7 9 9 10 9 9 10 10 10 8 9 8 8 9 8 9 11 12 12 12 14 16 14 14 14 14 13 13 12 13 14 14 13 12 11 7 4 5 4 6 5 4 6 7 8 10 11 11 12 13 12 11 11 11 11 11 9 8 10 9 10 10 9 10 9 8 8 8 6 7 6 6 7
7 9 9 9 9 7 9 5 7 9 10 4 6 9 11 5 7 6 6 6 6 7 8 8 9 8 8 7 7 7 9 9 9 8 7 5 6 8 11 12 10 10 11 12 13 14 12 16 16 15 14 14 14 14 15 12 9 6 6 4 1 3 1 3 5 7 8 9 9 9 12 13 14 13 11 12 11 12 11 11 10 10 9 9 9 9 10 11 9 8 9 8 10 10 7 4 5
7 7 10 11 8 7 7 6 6 5 8 5 5 6 8 5 9 11 7 5 7 7 8 9 10 12 10 10 11 9 8 7 9 10 10 9 8 7 7 8 10 10 11 12 13 15 14 14 14 14 12 12 13 14 14 12 11 11 10 10 10 8 10 8 11 13 12 12 15 15 13 13 13 12 11 11 11 10 11 11 10 10 9 9 9 9 8 6 9 10 10 9 10 10 8 5 6
10 4 9 10 10 9 9 6 4 7 8 5 2 8 10 1 4 7 6 8 14 6 7 12 12 12 9 10 11 10 10 10 9 8 8 8 9 7 7 9 10 11 12 10 10 11 12 12 13 14 13 12 12 12 13 11 11 10 13 14 14 14 14 12 11 10 10 10 9 10 11 10 11 12 11 11 11 11 11 10 10 10 10 9 9 8 9 10 9 9 7 9 9 7 8 9 9
9 4 4 6 8 10 9 7 9 7 2 4 1 3 7 12 7 5 7 7 8 6 8 11 11 9 9 8 8 10 12 11 10 10 12 11 9 10 12 10 10 12 11 9 9 7 10 12 12 13 11 12 11 11 12 13 12 12 12 13 12 12 12 13 12 11 9 8 9 10 8 9 10 11 11 10 11 11 11 11 10 10 10 10 9 10 11 9 7 7 8 9 8 8 10 10 8
5 4 4 7 6 7 8 8 8 6 7 10 8 1 7 10 5 7 5 5 5 10 11 11 10 10 10 11 10 11 12 13 13 12 12 12 12 11 10 9 10 10 10 11 11 11 12 12 13 12 13 11 10 11 12 12 13 13 13 12 12 11 12 11 8 7 7 6 9 8 8 8 9 10 11 11 11 12 11 11 11 10 10 10 9 10 10 10 10 9 9 9 9 8 8 8 7
3 6 7 4 3 1 4 8 9 5 5 13 11 7 9 14 3 4 4 7 11 14 13 10 8 9 10 11 12 12 10 10 11 12 13 13 13 13 11 11 8 9 9 9 9 9 9 8 9 9 11 10 10 11 12 13 14 12 12 12 14 12 10 9 7 7 7 7 9 10 9 9 9 9 10 11 11 11 11 11 11 12 12 11 10 11 10 10 10 10 10 10 9 9 7 7 8
4 6 6 8 5 4 5 2 5 5 13 13 11 10 11 11 8 8 8 7 9 9 6 4 5 6 8 9 11 11 11 11 11 13 14 15 14 12 8 9 11 9 9 9 8 8 8 9 10 11 13 10 10 11 12 14 13 13 13 13 15 15 13 11 9 8 7 7 10 10 10 10 9 10 9 10 11 10 11 11 11 12 11 10 10 10 11 11 10 9 8 8 10 11 9 8 8
1 2 3 6 10 4 5 5 1 11 12 10 12 9 11 12 11 6 6 2 5 6 8 8 8 9 10 10 10 12 12 12 13 12 13 14 13 9 6 9 11 12 8 8 8 8 8 9 9 11 10 10 9 11 11 13 12 13 13 14 14 15 14 11 13 13 11 11 11 11 10 8 8 9 8 8 9 10 11 11 11 10 10 11 12 10 9 9 8 8 8 8 8 9 8 9 9
2 1 4 7 3 3 8 4 8 9 10 2 2 8 3 15 16 2 6 6 7 4 5 8 9 11 11 11 13 10 9 10 11 11 12 12 12 13 11 13 12 9 10 11 10 9 9 8 10 12 13 12 11 11 11 12 11 12 13 13 14 12 13 13 13 12 11 11 10 10 9 10 9 8 9 10 12 14 12 11 11 12 11 11 10 8 8 8 8 8 8 9 9 10 10 9 7
6 4 4 8 8 8 6 7 5 4 1 1 3 7 11 5 10 11 13 10 5 9 11 12 13 14 13 12 12 10 10 11 12 13 12 12 13 13 14 14 12 11 9 9 9 9 8 8 9 11 15 11 9 9 10 10 12 13 12 13 13 12 12 12 12 12 11 10 10 11 11 11 11 12 12 13 13 13 10 12 11 11 11 9 9 10 9 8 8 8 8 9 10 10 9 10 11
4 2 5 8 7 4 5 3 7 7 5 1 2 3 5 7 7 4 12 16 18 19 18 16 11 9 11 10 8 8 8 9 10 11 12 13 14 15 13 11 10 10 11 10 7 7 6 7 7 10 11 8 8 10 9 11 12 11 11 11 11 10 11 11 11 10 10 11 10 10 10 9 10 11 11 12 10 9 11 11 10 10 10 10 9 8 8 9 8 7 7 8 8 7 8 9 10
6 4 1 4 7 4 9 3 3 1 4 2 3 6 3 7 4 4 5 4 3 6 11 13 16 15 13 13 14 15 13 11 9 10 12 13 14 11 7 7 9 9 9 7 7 6 7 9 9 11 12 11 10 10 10 11 11 9 8 10 11 11 10 10 9 9 10 10 10 10 10 10 10 9 9 8 8 9 10 11 10 10 10 9 9 10 9 9 9 9 7 7 8 6 8 9 8
2 1 5 4 4 5 6 9 8 4 8 8 1 5 9 7 12 10 12 12 7 8 8 7 10 12 11 12 14 14 12 10 9 10 11 13 12 8 8 8 7 7 7 9 9 8 10 9 8 9 10 7 8 9 9 8 8 7 8 9 9 10 11 12 12 11 10 9 9 10 10 10 9 9 8 7 8 8 9 10 10 10 10 9 9 10 10 9 9 9 9 9 9 7 7 7 6
3 1 5 4 1 2 4 6 4 8 10 9 8 13 8 5 9 3 6 9 14 7 9 9 9 8 9 12 13 13 13 12 11 9 10 11 10 9 8 6 7 8 8 7 9 7 6 6 6 7 6 7 7 6 6 6 7 8 9 9 10 10 11 11 11 10 9 9 9 8 8 8 9 9 9 8 8 9 9 10 10 10 10 9 10 10 10 10 10 10 11 11 10 9 9 9 9
5 4 3 3 3 3 6 3 8 5 7 5 9 12 10 8 10 2 2 3 3 5 6 7 9 10 8 11 14 14 12 10 10 11 10 10 9 9 8 7 6 6 7 7 5 3 4 4 4 5 7 7 6 5 4 4 5 5 6 7 8 9 8 8 8 7 6 8 9 8 9 10 8 7 8 8 9 9 10 9 10 9 9 10 10 10 10 10 10 10 10 9 9 9 9 9 8
3 4 2 2 2 7 6 2 4 2 7 7 5 1 6 4 4 5 7 6 8 8 10 10 10 9 9 11 14 15 13 10 10 11 9 8 5 4 4 5 5 6 5 4 4 1 3 4 4 5 4 3 3 4 4 5 5 5 6 5 6 7 8 8 7 7 8 8 9 9 9 8 10 8 9 9 9 9 10 10 9 10 9 9 10 10 10 10 10 9 9 8 8 8 8 8 7
6 5 4 1 2 2 1 2 2 3 5 4 5 7 3 6 3 1 4 6 5 7 9 9 8 9 8 8 10 11 13 11 8 8 9 7 5 6 5 4 5 4 4 4 4 6 6 3 4 4 5 5 4 4 3 5 4 6 5 7 7 7 8 7 6 7 9 9 8 9 9 10 7 9 9 9 10 11 10 10 10 9 10 10 10 10 9 9 9 10 9 9 8 9 9 7 6
3 6 5 5 6 6 5 8 2 4 2 5 6 8 3 5 2 7 5 5 7 8 6 8 9 10 7 9 9 9 11 12 12 11 6 6 6 6 5 4 4 3 4 5 5 3 3 4 4 4 4 4 4 4 4 4 4 5 6 7 7 5 6 6 7 7 8 9 8 9 9 7 9 9 9 11 11 10 9 9 9 9 9 9 10 10 9 9 9 9 8 7 8 7 8 8 7
Wind_Direction
324 326 320 311 303 217 96 46 93 302 66 250 302 221 254 244 198 100 172 100 135 261 224 63 100 89 163 190 161 161 182 122 205 132 215 235 147 141 131 133 139 141 149 156 158 160 161 163 162 159 157 155 152 146 144 145 143 140 145 146 147 148 141 138 141 144 136 131 145 128 111 132 131 119 110 119 113 114 109 109 108 104 99 96 99 97 102 109 118 126 127 126 121 119 111 108 102
320 321 317 300 308 118 244 126 101 339 30 333 253 132 246 282 106 186 177 186 197 184 212 125 74 72 80 103 121 123 31 275 185 171 82 142 113 125 143 142 145 147 152 155 159 157 158 164 162 161 158 156 152 148 147 148 146 144 146 144 145 146 144 145 145 138 134 137 149 142 147 158 141 125 133 132 127 134 121 115 110 107 103 113 110 109 107 104 114 119 117 122 124 123 122 114 104
320 327 328 332 38 105 109 46 269 40 70 283 278 203 297 142 188 213 202 199 200 154 164 120 117 82 79 97 77 121 242 353 132 186 115 156 128 200 156 151 151 149 152 156 157 155 155 163 164 162 160 156 153 150 151 151 149 149 149 148 148 151 150 149 143 143 144 142 133 147 164 136 154 142 119 150 129 107 117 119 114 110 106 109 118 121 122 124 126 126 127 133 136 135 133 121 98
315 290 305 24 320 19 78 26 97 144 236 216 301 286 247 187 224 209 217 209 171 153 182 113 112 208 111 76 161 95 74 180 218 157 132 189 195 155 156 152 148 145 149 154 156 157 156 164 163 165 160 157 155 152 154 153 152 154 154 150 151 154 157 153 145 146 147 144 141 147 143 144 150 137 145 145 117 125 122 116 114 113 118 120 123 131 129 126 127 127 136 136 138 135 140 130 103
327 302 164 106 105 8 83 203 170 120 235 199 229 269 263 227 188 188 222 213 201 151 95 157 92 325 158 140 149 140 210 28 244 237 134 162 117 151 149 146 144 147 154 154 153 156 161 163 163 162 162 160 156 155 156 156 156 157 155 152 155 159 162 156 151 146 150 147 145 151 155 151 135 142 156 148 116 140 131 124 120 121 126 128 132 139 133 132 130 134 133 130 135 139 140 148 131
312 326 360 113 273 190 54 323 290 226 223 153 255 257 227 221 173 191 189 242 211 146 161 121 156 187 52 277 163 156 167 145 193 233 157 188 147 152 147 145 144 151 154 153 154 157 165 164 163 160 164 161 159 158 159 159 159 160 157 157 157 158 165 152 149 148 152 156 148 145 149 145 141 143 144 153 147 144 136 132 122 134 143 148 133 140 144 136 135 136 137 139 137 139 142 138 139
332 358 351 22 338 43 179 194 251 225 260 169 234 249 196 208 216 153 193 117 309 55 276 159 107 83 65 280 20 200 257 179 118 214 172 151 141 149 147 148 146 151 154 154 156 158 166 163 163 159 164 165 162 161 162 161 162 163 161 160 160 159 158 149 151 152 150 152 147 153 147 147 141 152 162 164 145 149 147 140 141 140 140 147 138 134 148 141 138 135 134 137 136 136 134 133 136
222 81 303 68 268 26 233 233 255 170 277 178 227 245 199 203 189 185 181 143 209 153 220 161 144 108 218 49 159 262 356 217 221 132 123 145 143 148 151 149 148 153 155 154 157 160 165 163 163 162 165 168 164 163 164 164 163 165 165 163 163 163 156 155 164 165 165 158 159 158 149 148 148 158 156 164 145 140 143 142 140 139 140 152 133 132 142 138 139 136 134 135 136 136 138 138 137
345 154 4 75 248 23 350 240 252 230 273 230 277 239 214 189 189 175 169 219 56 199 164 167 182 111 225 65 161 283 295 329 127 119 137 145 149 152 153 157 153 154 155 155 156 161 164 167 164 167 168 168 168 166 166 166 165 166 167 166 165 161 160 164 163 168 170 161 161 158 150 151 153 168 168 163 165 162 158 153 149 144 146 149 144 135 135 141 137 138 138 137 138 138 140 143 139
335 106 276 176 130 239 291 288 242 241 220 228 258 219 181 205 213 190 157 134 199 139 199 178 158 123 149 145 315 319 259 154 123 112 142 149 148 151 154 160 157 153 154 156 159 161 163 169 168 170 171 168 169 167 165 169 167 168 170 169 168 163 164 167 164 166 177 170 166 168 156 154 155 162 169 157 168 173 157 154 159 153 150 146 148 148 141 138 136 142 142 143 141 140 142 143 140
287 5 151 157 229 228 227 258 260 290 270 303 303 229 217 167 183 182 167 181 158 163 185 178 92 140 120 224 195 245 267 145 141 150 151 152 153 154 156 160 156 154 158 159 159 161 166 169 172 171 171 173 170 166 166 170 171 170 172 172 172 168 168 169 168 168 177 172 162 161 158 159 158 169 160 169 165 166 166 157 166 160 154 151 150 153 154 153 142 140 141 148 151 146 145 145 141
325 270 63 206 206 190 228 213 249 266 292 309 273 189 158 180 179 142 202 154 211 232 177 177 195 137 92 146 275 346 97 172 165 150 149 150 157 156 153 153 153 157 158 161 160 163 167 168 171 173 172 176 173 166 166 171 177 172 173 174 176 174 172 170 172 171 175 170 161 167 170 167 165 173 161 137 132 164 169 160 165 160 159 157 155 152 154 156 153 158 152 151 156 156 156 154 158
188 113 88 100 224 192 208 224 247 265 307 267 222 260 134 152 199 194 191 183 178 173 241 218 143 124 180 182 278 39 175 199 168 151 149 154 155 152 142 148 156 153 158 160 163 168 169 170 171 173 174 176 172 164 168 175 177 176 174 176 176 178 175 173 174 176 172 171 166 171 170 163 150 139 134 134 139 169 155 168 169 171 166 167 164 162 161 162 164 166 164 159 166 162 163 158 161
164 183 134 235 61 185 163 220 245 238 264 237 245 224 150 173 229 198 146 172 196 184 217 183 141 120 96 57 266 206 212 196 169 152 142 146 142 139 143 148 154 153 156 160 167 169 171 171 171 172 171 174 170 167 169 178 179 179 179 176 176 177 179 175 175 184 171 168 165 168 166 162 151 153 147 148 154 167 185 190 191 171 181 176 172 164 171 170 172 171 167 169 167 173 174 172 176
250 190 109 160 266 141 236 195 203 206 247 204 243 168 185 233 163 162 169 174 218 208 339 92 159 127 227 160 259 201 190 187 162 147 132 136 130 134 140 145 149 150 157 165 165 167 173 172 174 173 172 170 169 169 172 179 179 181 183 179 177 178 179 176 176 183 168 166 168 169 172 171 160 161 160 158 158 162 177 184 180 157 181 189 184 181 182 177 182 181 175 175 181 181 181 180 179
207 81 99 186 233 181 259 203 194 191 251 221 258 226 202 252 171 147 232 170 215 272 160 192 217 198 172 173 210 180 166 159 156 134 126 133 121 123 135 142 147 155 160 166 168 172 171 175 176 177 174 172 170 169 174 177 180 181 184 183 179 179 178 176 178 179 169 166 170 171 175 172 167 165 167 165 166 167 172 171 171 181 189 188 189 192 195 189 198 195 184 190 192 193 191 192 190
82 117 260 191 248 182 232 189 161 229 247 293 297 167 189 242 257 201 152 162 148 193 134 332 201 27 165 199 179 140 149 146 136 132 124 137 132 132 134 141 146 156 168 174 172 175 174 177 180 179 182 174 172 170 172 177 181 180 185 187 182 179 178 177 179 176 170 172 169 176 172 165 167 170 169 172 173 172 173 173 177 187 181 187 193 192 199 198 203 202 195 201 201 203 200 204 201
105 215 176 236 199 211 198 208 189 210 217 277 335 215 210 246 293 251 94 80 131 84 93 338 18 18 308 306 140 140 145 149 154 147 153 156 153 151 157 166 160 173 175 176 185 175 176 184 183 183 182 181 176 175 175 177 179 182 186 186 183 183 179 177 179 177 175 175 175 178 172 170 170 175 173 177 178 180 180 181 183 188 185 193 197 201 200 202 205 208 209 210 212 211 190 187 208
178 218 177 231 182 231 171 206 225 228 255 239 283 307 187 239 202 237 170 217 147 124 45 26 49 3 41 98 130 139 149 156 160 166 161 166 170 169 170 170 178 163 177 180 187 184 180 180 183 188 186 180 179 181 179 177 181 183 180 179 184 184 183 178 179 180 176 176 180 175 176 176 176 181 180 182 183 186 187 188 189 190 192 197 194 201 200 201 208 213 213 215 217 213 176 189 203
232 176 236 237 224 256 248 248 252 223 248 287 305 300 146 253 189 350 220 189 187 170 160 350 150 196 144 136 143 147 155 163 168 170 174 175 176 173 171 175 181 184 183 184 180 180 180 182 186 186 185 180 178 184 181 178 186 190 186 185 183 178 185 185 181 182 181 180 178 179 180 183 183 185 194 190 184 187 195 195 194 194 195 196 193 196 200 200 207 214 217 215 216 211 181 198 204
272 180 224 230 236 257 257 251 258 271 268 276 277 285 313 285 267 168 231 165 229 219 192 166 195 175 168 160 155 152 159 166 175 178 178 181 184 184 181 180 182 186 184 171 166 182 186 182 179 186 186 185 183 183 183 185 186 191 187 188 186 188 186 186 188 187 186 185 183 182 186 185 189 192 194 198 192 190 193 199 202 200 199 201 195 194 200 205 206 210 219 218 215 212 198 207 205
274 214 228 201 283 247 263 255 264 262 281 268 285 296 255 305 311 247 157 195 205 211 222 226 178 164 156 163 167 163 165 171 178 181 186 185 185 188 190 194 191 161 145 171 186 181 185 183 180 182 185 189 188 185 185 182 181 195 192 187 191 191 192 191 189 192 192 190 188 188 186 191 197 197 197 200 200 193 196 200 203 201 200 204 198 199 202 203 209 207 210 219 223 218 215 217 217
249 265 262 221 224 243 275 268 239 268 269 260 270 249 286 267 263 250 187 211 247 232 226 211 179 168 169 161 159 168 170 176 181 187 187 190 193 192 190 187 183 179 178 189 184 184 182 183 181 177 185 187 191 186 180 176 187 191 191 189 191 195 196 196 193 193 195 193 193 191 189 199 201 204 203 202 207 197 204 201 202 201 201 203 197 200 206 206 206 208 211 221 223 221 228 229 226
250 259 298 286 230 236 249 263 272 283 251 261 228 342 291 280 254 292 225 244 235 282 262 189 168 164 147 153 172 170 178 181 189 191 188 191 190 192 188 187 190 177 181 191 186 184 181 188 185 180 185 184 190 187 183 183 184 185 190 190 198 196 194 202 199 197 194 198 197 198 197 198 200 206 209 205 208 200 209 203 199 201 205 206 199 204 205 208 209 209 214 222 225 227 229 232 231
244 260 242 256 258 245 253 271 290 291 271 258 309 287 263 235 231 344 255 256 270 277 6 167 140 146 170 170 177 182 181 188 190 194 196 200 200 193 190 192 182 179 192 196 192 188 188 184 184 190 186 188 185 184 190 186 182 186 186 192 197 190 199 201 201 199 201 200 201 201 196 203 206 208 207 207 198 207 205 203 199 202 202 205 191 207 207 206 208 208 212 220 219 227 229 235 231
211 223 312 307 297 310 293 300 265 263 271 272 292 273 264 254 307 274 236 259 238 269 41 102 152 158 172 186 186 184 191 193 196 190 196 195 187 184 200 196 190 193 199 191 190 198 194 181 182 191 191 188 186 182 191 188 186 188 192 193 192 190 200 197 192 200 203 201 204 204 201 203 206 206 207 201 197 205 203 202 201 201 203 203 195 204 204 204 206 207 215 218 220 225 228 232 228
305 309 282 273 272 291 289 232 284 295 243 247 262 276 273 260 148 263 280 233 250 165 259 63 161 174 185 186 192 195 193 199 196 197 193 188 189 195 200 196 197 206 188 198 198 197 193 189 191 187 190 187 184 189 189 192 187 193 193 192 189 195 195 192 196 200 201 204 206 202 204 204 204 203 202 201 200 199 200 199 202 199 205 205 199 206 198 202 204 205 206 210 216 220 226 223 220
310 292 310 277 262 254 261 289 269 271 288 195 194 252 264 257 176 233 245 271 188 216 234 206 183 189 191 195 191 197 200 205 198 183 197 190 196 199 197 196 204 199 194 203 200 191 190 197 197 191 185 185 186 193 190 189 191 194 190 188 194 195 187 194 198 200 204 206 204 203 205 205 203 206 200 200 199 197 199 200 199 198 206 202 199 203 198 203 204 209 210 209 211 211 220 220 216
292 320 305 296 299 288 217 225 235 161 262 279 179 309 271 245 240 165 218 249 275 233 255 230 205 203 201 196 198 196 205 197 188 199 204 203 205 203 200 200 197 194 206 202 192 186 196 194 196 199 190 183 190 193 194 195 192 192 187 193 195 188 191 195 199 203 204 204 203 205 206 206 205 206 206 204 198 199 199 199 202 204 203 198 197 201 201 200 205 210 217 209 210 208 215 226 221
310 299 211 296 296 279 255 204 207 204 246 141 84 264 243 243 249 203 225 220 249 273 267 266 229 215 209 200 199 204 208 193 197 205 202 204 208 209 214 212 202 198 198 191 184 197 197 193 195 193 196 192 193 195 195 196 197 195 194 191 190 189 193 197 205 204 202 203 203 206 207 206 206 209 206 208 200 201 203 203 202 205 204 199 195 195 199 195 202 202 210 198 213 209 221 229 231
256 266 188 215 255 261 199 169 177 214 186 182 148 253 256 233 268 264 226 193 221 240 239 242 253 234 215 212 204 205 208 197 200 203 202 204 206 209 213 211 207 207 188 184 193 201 190 193 188 195 195 198 193 198 197 199 195 196 195 194 190 191 193 199 202 203 204 203 200 207 207 207 207 208 208 206 206 203 206 210 209 208 195 195 194 198 196 199 199 205 199 209 218 226 229 228 222
239 307 251 268 201 261 338 312 152 214 271 174 158 246 261 209 257 268 264 208 212 236 239 237 232 237 229 215 213 210 212 206 210 204 201 202 202 205 207 208 201 202 198 194 198 190 192 194 192 196 192 197 198 200 200 198 196 196 197 197 196 193 195 200 200 200 201 199 203 208 208 209 207 207 206 202 204 206 208 212 213 204 197 193 200 197 199 203 206 210 209 201 212 229 224 239 223
258 216 270 254 230 251 354 272 199 209 211 255 188 242 34 217 213 224 231 224 215 231 237 241 236 235 233 225 216 214 215 217 217 210 207 206 206 203 203 204 200 200 201 199 193 186 193 194 193 196 194 199 201 201 200 199 197 197 197 197 200 197 203 205 203 200 197 198 201 207 206 207 209 208 206 202 204 205 208 210 207 200 194 196 198 200 203 207 200 209 215 210 209 220 214 230 232
251 221 241 204 219 258 220 294 299 222 188 247 226 232 238 234 267 255 282 224 234 240 245 246 244 240 239 233 228 221 217 211 211 212 212 206 206 204 203 200 199 199 203 202 194 187 191 191 193 196 198 199 199 198 199 199 201 198 195 198 199 204 210 209 207 201 210 209 203 209 202 203 206 207 206 203 207 207 206 207 200 195 191 197 200 199 210 201 205 202 216 209 206 213 217 218 229
224 217 268 273 259 222 233 189 269 158 218 226 231 232 244 232 251 272 245 209 214 237 241 245 248 248 247 239 234 234 228 222 219 214 210 206 206 204 203 201 199 197 198 201 197 197 195 194 194 199 199 196 199 199 200 200 196 198 197 190 200 210 214 214 207 208 214 212 214 214 204 204 205 206 207 205 208 208 209 209 205 197 190 196 198 204 208 203 205 207 213 211 207 215 215 210 216
178 192 218 230 234 234 228 238 261 273 250 227 234 240 246 240 247 251 266 230 196 230 240 248 249 251 251 245 235 230 231 233 230 228 218 208 204 201 204 202 199 196 196 196 197 195 195 192 194 198 200 196 196 196 190 193 189 195 200 201 204 212 214 213 209 211 210 213 217 212 209 210 205 205 207 207 210 210 210 211 211 199 199 195 202 208 211 202 203 205 215 204 208 224 229 222 208
282 307 279 257 257 268 281 245 234 230 257 247 245 244 250 240 234 240 241 254 239 239 249 245 248 247 245 245 241 237 234 232 228 225 222 215 207 203 202 197 196 198 198 194 194 196 194 191 188 198 199 192 189 189 189 189 192 198 207 207 211 209 212 211 211 213 212 216 214 210 208 210 208 204 206 204 211 212 213 211 207 207 201 201 207 215 206 205 201 199 200 196 202 213 227 208 213
267 284 282 275 255 264 247 261 264 255 202 273 249 250 247 240 235 234 243 250 251 240 243 250 246 246 250 242 239 236 237 268 266 263 248 237 229 217 203 196 192 193 203 197 196 196 196 194 194 202 195 194 195 193 192 193 196 194 192 200 201 205 205 203 212 210 212 213 209 207 208 209 207 206 206 206 209 208 211 210 209 208 199 207 211 209 200 197 194 195 184 206 206 208 226 185 199
252 244 258 274 260 267 269 267 263 267 216 269 274 249 254 245 237 236 232 236 243 245 238 244 241 248 249 251 243 242 241 244 249 251 247 229 220 220 212 207 200 197 196 196 198 197 196 196 201 201 194 195 200 198 195 201 203 204 201 208 203 210 214 212 214 216 216 214 207 206 207 207 206 211 209 206 208 210 211 208 211 207 205 203 206 211 205 206 200 198 190 200 201 228 230 195 187
236 235 241 243 258 252 296 273 313 295 198 286 336 305 278 276 255 244 242 231 240 246 255 252 226 235 241 237 230 230 235 238 240 236 234 224 216 217 213 215 212 209 207 202 198 197 197 200 201 199 197 197 200 201 202 207 206 207 211 218 233 222 208 219 216 208 195 198 209 207 210 206 206 212 208 206 210 210 208 210 207 202 207 201 204 207 207 213 203 204 197 206 194 224 212 223 193
233 229 237 248 251 237 232 275 319 305 289 242 305 296 285 225 252 258 260 236 235 253 263 269 274 253 242 252 256 230 227 224 234 246 249 243 227 220 212 213 213 211 209 203 202 200 200 201 203 200 198 198 201 200 201 201 195 201 212 221 103 200 15 163 190 217 202 200 209 210 214 209 210 211 207 207 206 210 209 209 206 205 203 200 200 207 207 211 203 202 197 202 204 218 224 205 208
256 233 227 240 250 259 263 278 284 299 295 291 242 309 270 232 230 240 247 264 242 226 224 244 244 251 252 250 241 245 247 239 226 231 231 228 219 220 225 223 211 214 213 210 205 203 201 202 203 201 202 203 204 202 199 193 192 194 190 197 203 201 212 197 205 210 202 199 207 210 212 210 211 212 209 207 207 209 211 209 207 205 205 201 202 209 209 198 206 203 202 200 210 212 215 189 215
251 232 210 236 243 246 254 259 224 242 248 282 81 222 274 154 255 239 238 238 248 244 225 239 239 240 239 242 249 244 235 241 245 245 245 237 234 225 221 208 214 211 216 211 212 211 208 204 202 201 202 204 205 202 195 193 196 200 201 203 205 204 208 215 216 217 212 213 215 213 213 210 211 212 212 207 208 208 210 208 207 207 206 205 202 204 208 208 206 203 191 199 207 196 199 221 218
242 261 273 211 226 231 235 229 228 241 257 277 322 213 261 276 242 244 225 231 253 264 258 250 246 251 251 247 245 248 251 247 239 235 237 234 227 214 220 214 204 211 210 204 210 208 206 206 204 206 206 206 203 199 194 194 197 199 203 209 212 215 215 221 213 215 212 204 210 215 210 209 210 212 212 209 208 206 207 208 205 204 204 205 196 205 212 210 201 200 197 203 202 199 201 217 225
276 308 350 282 253 248 231 218 230 231 242 249 254 228 280 256 255 208 179 245 269 258 246 246 246 244 247 250 242 238 239 244 245 247 245 240 237 227 219 219 220 212 207 204 202 203 207 208 208 207 208 204 204 199 196 196 200 200 204 207 214 219 220 226 222 215 210 195 209 213 212 211 209 210 211 208 205 205 204 206 202 203 203 203 199 208 213 207 205 203 198 201 207 208 206 215 213
296 338 314 290 355 310 269 238 228 239 206 243 232 188 247 268 245 199 242 213 231 244 245 249 245 239 240 244 248 246 243 244 248 246 247 246 240 237 225 218 214 215 217 216 214 209 210 207 209 208 212 207 205 202 200 199 201 202 207 210 214 218 218 225 215 206 200 190 211 210 211 212 210 209 211 211 207 206 203 204 203 203 205 205 201 208 209 209 210 211 210 209 207 212 210 205 216
288 328 281 287 302 301 326 285 227 210 234 231 222 198 211 272 237 195 193 215 214 241 274 272 258 259 254 245 244 247 248 243 241 239 240 242 240 237 228 216 219 215 216 214 214 210 210 207 210 210 213 208 205 204 199 203 201 203 210 210 213 217 216 216 214 212 197 196 210 212 209 212 209 211 208 211 211 205 206 203 204 207 206 203 204 205 210 210 210 210 211 209 209 211 213 218 225
17 294 306 303 284 245 256 259 231 232 237 222 216 196 194 234 260 208 218 228 187 197 239 248 258 254 251 248 245 243 241 241 239 236 240 239 246 245 226 228 229 225 211 210 214 210 210 213 209 215 219 210 208 208 203 207 203 207 211 212 215 217 214 213 214 215 204 206 207 211 211 210 213 213 208 208 210 208 206 206 207 205 204 204 207 207 208 209 207 206 207 207 211 209 208 208 212
214 242 279 245 260 204 243 210 227 215 236 219 173 150 250 230 254 196 250 265 269 245 244 256 257 257 253 251 252 249 247 250 248 245 239 238 233 232 225 229 229 227 219 213 207 205 209 210 207 212 222 212 209 205 204 206 204 207 208 213 220 219 218 217 215 216 208 209 209 212 204 209 208 206 207 208 212 207 204 205 203 206 209 209 209 203 207 204 203 204 207 208 208 205 205 204 222
195 211 211 216 235 241 253 211 246 275 297 231 133 177 228 256 271 243 247 240 239 264 252 235 235 242 245 248 250 251 248 240 242 242 239 237 232 231 227 227 226 224 223 217 211 206 208 212 210 212 226 214 209 206 209 208 212 211 208 211 217 217 220 218 218 215 212 211 207 210 207 207 205 206 206 210 213 206 204 210 207 210 213 210 207 207 203 200 197 202 203 205 207 207 202 204 219
231 236 189 241 235 242 263 212 236 238 247 316 262 152 244 170 238 226 219 226 225 237 249 259 258 257 262 268 285 285 272 260 250 248 244 239 237 232 229 225 224 222 224 223 216 212 202 214 209 216 231 226 211 214 213 216 218 216 214 215 217 216 220 218 220 216 212 211 210 210 211 210 209 212 210 215 209 198 206 209 208 210 209 209 202 202 202 198 197 196 202 206 203 197 201 201 205
229 203 54 218 232 234 248 291 330 311 312 279 203 211 207 228 329 311 244 311 329 282 270 264 263 260 259 261 261 261 259 261 255 251 256 251 245 244 240 230 223 223 226 221 216 205 199 213 209 213 217 220 214 216 217 217 222 218 216 216 217 217 219 220 221 215 217 211 210 208 212 211 213 214 216 209 203 200 202 205 205 209 206 204 200 197 195 198 198 201 206 206 206 188 194 201 205
351 63 199 259 306 225 283 278 236 271 278 238 215 275 271 312 278 275 289 281 263 247 261 275 271 271 276 272 270 268 269 267 264 257 251 255 255 247 231 226 221 222 222 216 213 201 204 207 206 217 223 225 221 220 220 215 220 217 222 217 216 216 216 216 218 215 213 210 208 210 211 212 209 209 210 200 197 197 201 202 203 206 204 201 199 196 195 194 197 205 213 219 217 201 199 209 211
48 348 285 341 146 158 211 252 246 222 241 257 217 241 247 210 274 266 270 255 267 280 265 260 269 277 273 265 265 266 263 257 261 261 258 256 258 253 242 232 222 217 215 216 221 211 209 211 214 222 226 225 228 215 216 213 215 220 222 219 219 216 216 218 217 215 209 206 212 212 211 211 208 205 203 198 194 194 199 199 203 203 202 198 200 198 197 196 196 205 209 212 214 211 215 221 222
183 255 87 40 300 224 202 172 246 259 221 246 232 224 236 191 237 316 251 255 278 307 316 330 304 300 302 307 299 287 271 260 258 256 252 251 246 240 235 224 218 218 217 223 230 213 211 222 225 220 229 227 227 224 226 233 226 229 226 223 218 221 222 222 219 215 201 206 210 211 209 213 210 203 198 193 193 195 197 199 200 201 195 198 198 198 196 198 197 202 202 205 201 194 200 209 208
326 348 343 237 195 260 292 214 292 312 277 297 311 231 254 196 232 232 256 306 8 357 6 352 333 320 325 335 335 322 308 289 273 266 250 238 249 262 251 237 226 221 222 228 232 240 237 230 224 236 254 262 252 243 236 240 235 231 240 235 231 223 220 216 210 202 204 207 211 208 211 210 210 199 203 197 196 196 196 196 197 195 193 193 196 199 197 198 196 201 196 198 191 184 194 203 198
332 4 315 11 248 259 142 317 192 242 283 262 292 267 251 256 229 291 32 36 11 14 351 338 327 322 321 323 333 338 330 324 312 294 302 294 260 241 234 231 230 232 226 216 206 215 227 221 228 226 227 240 243 242 226 238 235 239 234 233 229 221 221 215 214 208 209 212 210 209 209 210 198 204 196 198 200 200 198 194 188 187 188 190 193 197 197 196 195 196 193 190 179 180 186 197 185
283 295 300 328 353 334 328 292 107 1 312 294 291 268 298 274 49 51 23 1 357 336 346 320 317 318 317 323 326 341 338 333 338 329 290 259 254 249 245 237 241 221 222 216 224 219 225 212 216 214 216 230 228 249 229 243 235 233 232 236 233 228 222 215 213 212 214 213 211 208 208 199 203 205 193 200 200 198 190 185 184 187 188 188 190 191 189 189 190 189 184 181 176 185 196 202 201